This demonstration page uses our WeatherBlox Daily Observations layout. Learn more.

38.88101, -77.10428

Hourly Observations for March 16, 2017

Temp ( °F °C ) Dew Point ( °F °C ) Humidity (%) Winds ( mph kmh ) Pressure ( in mb ) Visibility ( mi km ) Precip ( " mm )
12:52 am 00:52 Mostly Clear 29 -1.7 5 -15 36 36 NW 9 15 30.12 1020 10 16.09344 0 0
1:52 am 01:52 Clear 28 -2.2 6 -14.4 39 39 NW 13 20 30.12 1020 10 16.09344 0 0
2:52 am 02:52 Clear 28 -2.2 7 -13.9 41 41 WNW 12 19 30.12 1020 10 16.09344 0 0
3:52 am 03:52 Clear 28 -2.2 8 -13.3 43 43 W 7 11 30.12 1020 10 16.09344 0 0
4:52 am 04:52 Clear 27 -2.8 8 -13.3 45 45 WSW 6 9 30.12 1020 10 16.09344 0 0
5:52 am 05:52 Clear 26 -3.3 10 -12.2 51 51 SSW 7 11 30.12 1020 10 16.09344 0 0
6:52 am 06:52 Clear 26 -3.3 11 -11.7 53 53 SW 9 15 30.15 1021 10 16.09344 0 0
7:52 am 07:52 Sunny 27 -2.8 12 -11.1 53 53 SSW 7 11 30.15 1021 10 16.09344 0 0
8:52 am 08:52 Sunny 31 -0.6 14 -10 49 49 W 7 11 30.18 1022 10 16.09344 0 0
9:52 am 09:52 Partly Cloudy 33 0.6 17 -8.3 52 52 WNW 16 26 30.18 1022 10 16.09344 0 0
10:52 am 10:52 Mostly Cloudy 34 1.1 16 -8.9 48 48 WNW 18 30 30.18 1022 10 16.09344 0 0
11:52 am 11:52 Mostly Cloudy 36 2.2 16 -8.9 44 44 WNW 17 28 30.18 1022 10 16.09344 0 0
12:52 pm 12:52 Partly Cloudy 37 2.8 15 -9.4 41 41 WNW 17 28 30.18 1022 10 16.09344 0 0
1:52 pm 13:52 Partly Cloudy 37 2.8 16 -8.9 42 42 WNW 12 19 30.18 1022 10 16.09344 0 0
2:52 pm 14:52 Mostly Sunny 39 3.9 15 -9.4 38 38 WNW 17 28 30.15 1021 10 16.09344 0 0
3:52 pm 15:52 Mostly Sunny 41 5 16 -8.9 36 36 NW 15 24 30.15 1021 10 16.09344 0 0
4:52 pm 16:52 Mostly Sunny 42 5.6 15 -9.4 33 33 WNW 17 28 30.15 1021 10 16.09344 0 0
5:52 pm 17:52 Mostly Sunny 41 5 15 -9.4 35 35 WNW 17 28 30.15 1021 10 16.09344 0 0
6:52 pm 18:52 Mostly Sunny 40 4.4 15 -9.4 36 36 WNW 15 24 30.18 1022 10 16.09344 0 0
7:52 pm 19:52 Mostly Clear 39 3.9 15 -9.4 38 38 NW 10 17 30.18 1022 10 16.09344 0 0
8:52 pm 20:52 Clear 38 3.3 15 -9.4 39 39 WNW 7 11 30.21 1023 10 16.09344 0 0
9:52 pm 21:52 Clear 38 3.3 15 -9.4 39 39 W 8 13 30.21 1023 10 16.09344 0 0
10:52 pm 22:52 Clear 37 2.8 15 -9.4 41 41 W 7 11 30.24 1024 10 16.09344 0 0
11:52 pm 23:52 Clear 36 2.2 15 -9.4 42 42 Calm 30.24 1024 10 16.09344 0 0

Powered by AerisWeather